Location: Worth Mountain WMA
(34.9569°N, 81.4819°W)
Time: 09:05:13
(UTC-05:00)

Cosmos 1655 Rocket - Pass Details

Date: 18 August 2017
Orbit: 970 x 1007 km, 83.0° (Epoch: 20 November)

Event Time Altitude Azimuth Distance (km) Brightness Sun altitude
Rises 20:41:44 0° 171° (S) 3,658 6.7 -6.9°
Reaches altitude 10° 20:44:17 10° 167° (SSE) 2,718 6.0 -7.4°
Maximum altitude 20:50:19 55° 91° (E) 1,174 4.1 -8.6°
Drops below altitude 10° 20:56:27 10° 16° (NNE) 2,759 6.5 -9.7°
Sets 20:59:02 0° 12° (NNE) 3,717 7.2 -10.2°
